Location: Hopewell Observatory
(38.8698°N, 77.6988°W)
Time: 11:56:46
(UTC-04:00)

Amateur Radio Satellites - All Passes

Search period start: 30 August 2015 11:26
Search period end: 31 August 2015 11:26
Location: Hopewell Observatory, 38.8698°N, 77.6988°W

Satellite Date Start Highest point End Downlink Frequencies (MHz)
Time Altitude Azimuth
AISAT 30 Aug 11:27:34 11:30:51 21° 93° (E) 11:34:16 437.250
UKube-1 30 Aug 11:27:55 11:31:39 28° 96° (E) 11:35:23 .
CUBEBUG 1 30 Aug 11:34:32 11:36:46 14° 90° (E) 11:39:13 437.445
SO-50 30 Aug 11:37:01 11:41:47 48° 243° (WSW) 11:46:22 436.795
CUBEBUG 2 30 Aug 11:55:27 11:58:39 18° 294° (WNW) 12:01:40 437.445
VELOX 1 30 Aug 11:55:38 11:59:50 40° 98° (E) 12:04:03 145.980
CINEMA 3 30 Aug 11:55:49 11:56:14 10° 298° (WNW) 11:56:20 145.822/145.860
Cosmos 2491 30 Aug 11:56:44 12:02:41 19° 298° (WNW) 12:08:10 435.465 / 435.565
50 SAT 30 Aug 11:57:11 12:00:58 51° 99° (E) 12:04:42 437.505
PHONESAT 2.4 30 Aug 12:01:11 12:04:22 36° 205° (SSW) 12:07:31 2401.200-2431.200
ZACube-1 30 Aug 12:02:54 12:06:28 23° 291° (WNW) 12:09:54 437.345
CUSAT 1 30 Aug 12:03:10 12:10:55 80° 263° (W) 12:19:11 437.405
UWE-3 30 Aug 12:06:16 12:09:19 17° 294° (WNW) 12:12:10 435.000/436.395/437.385
FUNcube-1 30 Aug 12:09:18 12:12:40 20° 292° (WNW) 12:15:51 145.935
POLYITAN 1 30 Aug 12:10:44 12:14:42 37° 262° (W) 12:18:42 437.675
POPSAT HIP 1 30 Aug 12:14:08 12:18:02 35° 263° (W) 12:21:58 437.405
DUCHIFAT 1 30 Aug 12:16:14 12:20:07 34° 263° (W) 12:23:59 145.980
HO-68 30 Aug 12:17:14 12:19:37 11° 307° (NW) 12:21:32 435.675
DANDE 30 Aug 12:17:54 12:25:26 86° 264° (W) 12:34:00 436.750
UNISAT 6 30 Aug 12:19:29 12:21:53 13° 271° (W) 12:24:04 437.425
QB50P2 30 Aug 12:31:20 12:34:43 22° 266° (W) 12:38:01 145.880/145.840
BUGSAT 1 30 Aug 12:31:39 12:35:24 35° 263° (W) 12:39:10 437.445
ISS 30 Aug 12:31:40 12:32:18 10° 349° (N) 12:32:55 145.825
NANOSAT C BR1 30 Aug 12:33:48 12:37:08 22° 266° (W) 12:40:23 145.865
ESTCUBE 1 30 Aug 12:43:25 12:47:55 79° 284° (WNW) 12:52:24 437.505/2401.250
QB50P1 30 Aug 12:47:36 12:50:13 15° 269° (W) 12:52:41 145.935-145.965
TISAT 1 30 Aug 12:47:46 12:50:10 15° 91° (E) 12:52:45 437.305
DX 1 30 Aug 12:48:28 12:52:23 32° 289° (WNW) 12:56:15 434.975-435.025
AISAT 30 Aug 13:03:27 13:07:32 34° 289° (WNW) 13:11:33 437.250
HUMSAT D 30 Aug 13:03:43 13:05:34 12° 295° (WNW) 13:07:12 437.325/437.525
UKube-1 30 Aug 13:04:07 13:07:40 24° 291° (WNW) 13:11:08 .
CUBEBUG 1 30 Aug 13:09:10 13:13:26 49° 287° (WNW) 13:17:42 437.445
PCSat 30 Aug 13:10:25 13:15:01 28° 251° (WSW) 13:19:30 145.827
SPROUT 30 Aug 13:11:17 13:15:32 52° 99° (E) 13:19:47 437.525
Oscar 19 30 Aug 13:21:10 13:26:02 45° 72° (ENE) 13:31:00 437.125/150
Cosmos 2504 30 Aug 13:21:12 13:26:28 17° 281° (W) 13:31:05 435.465 / 435.565
VELOX 1 30 Aug 13:32:58 13:36:07 19° 293° (WNW) 13:39:07 145.980
50 SAT 30 Aug 13:33:52 13:35:03 11° 294° (WNW) 13:36:04 437.505
CUSAT 1 30 Aug 13:48:18 13:52:44 15° 276° (W) 13:56:44 437.405
Gurwin Techsat 1B 30 Aug 13:49:25 13:53:44 27° 68° (ENE) 13:58:10 435.225
ITUPSAT 1 30 Aug 13:52:12 13:54:08 13° 89° (E) 13:56:20 437.325
GONETS M04 30 Aug 13:58:07 14:06:15 41° 73° (ENE) 14:14:31
DANDE 30 Aug 14:03:13 14:08:03 17° 274° (W) 14:12:40 436.750
Cosmos 2499 30 Aug 14:07:03 14:08:16 11° 53° (NE) 14:10:13 435.465 / 435.565
JAS-2 30 Aug 14:07:45 14:13:52 28° 63° (ENE) 14:20:20 435.910
ISS 30 Aug 14:09:41 14:09:55 10° 10° (N) 14:10:11 145.825
ITAMSAT 1 30 Aug 14:16:32 14:21:16 38° 70° (ENE) 14:26:04 435.822/435.867
TISAT 1 30 Aug 14:22:07 14:26:11 42° 287° (WNW) 14:30:12 437.305
BEESAT 30 Aug 14:24:46 14:28:54 29° 96° (E) 14:33:04 436.000
AO-7 30 Aug 14:27:48 14:33:23 21° 55° (NE) 14:39:18 29.400- 29.500
RS-15 30 Aug 14:43:22 14:46:25 12° 98° (E) 14:50:38 29.354- 29.394
SPROUT 30 Aug 14:48:54 14:51:13 14° 294° (WNW) 14:53:20 437.525
SWISSCUBE 30 Aug 14:50:03 14:54:46 60° 101° (E) 14:59:28 437.505
Oscar 19 30 Aug 15:01:50 15:05:40 20° 268° (W) 15:09:22 437.125/150
BEESAT 3 30 Aug 15:12:07 15:15:37 29° 114° (ESE) 15:19:12 437.485
BEESAT 2 30 Aug 15:21:49 15:25:18 28° 114° (ESE) 15:28:51 435.950
ITUPSAT 1 30 Aug 15:27:48 15:32:31 62° 286° (WNW) 15:37:12 437.325
Gurwin Techsat 1B 30 Aug 15:28:40 15:33:34 37° 263° (W) 15:38:28 435.225
JUGNU 30 Aug 15:40:50 15:42:28 11° 179° (S) 15:44:06 437.505
ISS 30 Aug 15:44:20 15:47:11 28° 29° (NNE) 15:50:03 145.825
STARS 30 Aug 15:47:31 15:50:46 20° 93° (E) 15:54:07 437.465
AIST 2 30 Aug 15:50:13 15:50:52 10° 109° (ESE) 15:51:48 435.215
JAS-2 30 Aug 15:50:50 15:58:21 64° 260° (W) 16:06:11 435.910
GONETS M04 30 Aug 15:55:02 16:03:08 42° 272° (W) 16:11:07
Cosmos 2499 30 Aug 15:55:18 16:03:53 60° 78° (ENE) 16:11:55 435.465 / 435.565
ITAMSAT 1 30 Aug 15:56:43 16:00:55 24° 266° (W) 16:04:59 435.822/435.867
KKS-1 30 Aug 16:01:19 16:05:42 50° 100° (E) 16:10:04 437.445
BEESAT 30 Aug 16:02:38 16:06:40 27° 291° (WNW) 16:10:36 436.000
HORYU 2 30 Aug 16:09:16 16:13:42 63° 74° (ENE) 16:18:11 437.375
AO-7 30 Aug 16:16:54 16:25:17 88° 249° (WSW) 16:33:41 29.400- 29.500
SWISSCUBE 30 Aug 16:29:34 16:32:10 14° 296° (WNW) 16:34:35 437.505
RS-15 30 Aug 16:46:13 16:56:55 69° 116° (ESE) 17:08:08 29.354- 29.394
SRMSAT 30 Aug 16:48:18 16:49:23 10° 175° (S) 16:50:30 437.500
BEESAT 3 30 Aug 16:50:08 16:53:33 25° 311° (NW) 16:56:55 437.485
BEESAT 2 30 Aug 16:59:48 17:03:18 26° 310° (NW) 17:06:47 435.950
ISS 30 Aug 17:20:40 17:23:36 31° 225° (SW) 17:26:32 145.825
STARS 30 Aug 17:23:16 17:27:19 34° 289° (WNW) 17:31:18 437.465
AIST 2 30 Aug 17:24:43 17:28:57 68° 302° (WNW) 17:33:12 435.215
Cubesat XI-IV 30 Aug 17:24:55 17:28:11 17° 64° (ENE) 17:31:40 437.490
MOZHAYETS 4 30 Aug 17:39:06 17:43:42 83° 104° (ESE) 17:48:15
KKS-1 30 Aug 17:39:16 17:41:57 15° 294° (WNW) 17:44:29 437.445
HORYU 2 30 Aug 17:49:19 17:50:50 11° 271° (W) 17:52:04 437.375
Cosmos 2499 30 Aug 17:49:28 17:56:28 27° 277° (W) 18:02:52 435.465 / 435.565
CUTE-I 30 Aug 18:08:24 18:13:20 42° 71° (ENE) 18:18:22 437.470
AO-7 30 Aug 18:14:15 18:19:20 16° 272° (W) 18:23:50 29.400- 29.500
SRMSAT 30 Aug 18:36:21 18:37:39 11° 185° (S) 18:38:55 437.500
RS-15 30 Aug 19:00:11 19:10:16 38° 321° (NW) 19:20:36 29.354- 29.394
AIST 1 30 Aug 19:02:16 19:05:11 18° 72° (ENE) 19:08:15
Cubesat XI-IV 30 Aug 19:02:35 19:07:51 60° 259° (WSW) 19:13:08 437.490
O/OREOS (USA 219) 30 Aug 19:08:35 19:12:30 30° 104° (ESE) 19:16:32 437.305
HO-68 30 Aug 19:08:45 19:12:43 17° 57° (ENE) 19:17:02 435.675
BRITE-PL 30 Aug 19:24:01 19:27:49 32° 70° (ENE) 19:31:56 437.365/2234.400
CUBESAT XI-V 30 Aug 19:28:49 19:33:28 80° 284° (WNW) 19:38:07 437.345
CUTE-I 30 Aug 19:49:27 19:53:38 23° 267° (W) 19:57:42 437.470
GOMX 1 30 Aug 19:59:34 20:03:47 45° 72° (ENE) 20:08:20 467.674
CUTE 1.7 + AOD 2 30 Aug 20:05:29 20:08:38 21° 69° (ENE) 20:11:54 437.475
Cosmos 2491 30 Aug 20:07:55 20:15:58 41° 73° (ENE) 20:24:10 435.465 / 435.565
YUBILEINY 30 Aug 20:17:16 20:22:42 19° 81° (E) 20:28:37 435.215
CANX-2 30 Aug 20:18:32 20:22:20 32° 72° (ENE) 20:26:11 2200.000
DOVE 4 30 Aug 20:19:44 20:24:02 44° 72° (ENE) 20:28:39 437.250
STRAND 1 30 Aug 20:22:26 20:27:35 86° 107° (ESE) 20:32:42 437.568
PRISM 30 Aug 20:31:13 20:35:20 83° 103° (ESE) 20:39:27 437.425
AIST 1 30 Aug 20:39:03 20:42:59 34° 268° (W) 20:46:53
SEEDS 30 Aug 20:42:15 20:46:14 41° 73° (ENE) 20:50:16 437.485
Oscar 11 30 Aug 20:42:52 20:44:44 13° 66° (ENE) 20:46:48 145.826/435.025
O/OREOS (USA 219) 30 Aug 20:48:11 20:51:58 25° 301° (WNW) 20:55:41 437.305
HO-68 30 Aug 20:52:24 20:59:34 86° 74° (ENE) 21:06:48 435.675
BRITE-PL 30 Aug 21:03:11 21:06:30 21° 269° (W) 21:09:53 437.365/2234.400
COMPASS 1 30 Aug 21:06:14 21:10:23 62° 75° (ENE) 21:14:33 437.405
CUBEBUG 2 30 Aug 21:14:35 21:18:41 33° 71° (ENE) 21:22:57 437.445
CINEMA 3 30 Aug 21:14:43 21:19:20 74° 76° (ENE) 21:24:13 145.822/145.860
AAUSAT CUBESAT 2 30 Aug 21:17:36 21:21:46 71° 76° (ENE) 21:25:57 437.432
RS-15 30 Aug 21:20:09 21:27:25 18° 354° (N) 21:34:46 29.354- 29.394
ZACube-1 30 Aug 21:21:09 21:24:39 23° 69° (ENE) 21:28:17 437.345
UWE-3 30 Aug 21:24:25 21:28:27 32° 71° (ENE) 21:32:39 435.000/436.395/437.385
FUNcube-1 30 Aug 21:26:58 21:30:38 25° 69° (ENE) 21:34:26 145.935
GOMX 1 30 Aug 21:39:28 21:42:18 16° 271° (W) 21:45:04 467.674
CUTE 1.7 + AOD 2 30 Aug 21:40:30 21:44:22 32° 264° (W) 21:48:12 437.475
DELFI C3 30 Aug 21:51:14 21:55:05 45° 74° (ENE) 21:58:59 145.870
CANX-2 30 Aug 21:55:05 21:58:20 20° 267° (W) 22:01:29 2200.000
DOVE 4 30 Aug 21:59:04 22:02:08 17° 271° (W) 22:05:09 437.250
STRAND 1 30 Aug 22:04:24 22:06:09 11° 298° (WNW) 22:07:36 437.568
Cosmos 2491 30 Aug 22:04:49 22:12:53 42° 272° (W) 22:20:51 435.465 / 435.565
DX 1 30 Aug 22:07:56 22:10:36 17° 67° (ENE) 22:13:25 434.975-435.025
YUBILEINY 30 Aug 22:09:48 22:18:35 81° 278° (W) 22:27:28 435.215
Cosmos 2504 30 Aug 22:09:50 22:11:17 11° 76° (ENE) 22:13:31 435.465 / 435.565
Oscar 11 30 Aug 22:16:12 22:20:29 56° 260° (W) 22:24:46 145.826/435.025
HUMSAT D 30 Aug 22:16:24 22:20:16 34° 72° (ENE) 22:24:12 437.325/437.525
SEEDS 30 Aug 22:19:41 22:22:16 15° 269° (W) 22:24:40 437.485
UKube-1 30 Aug 22:21:59 22:25:10 21° 68° (ENE) 22:28:28 .
AISAT 30 Aug 22:24:50 22:27:32 17° 66° (ENE) 22:30:23 437.250
CUBEBUG 1 30 Aug 22:31:24 22:32:09 11° 64° (ENE) 22:33:11 437.445
UNISAT 6 30 Aug 22:35:22 22:37:23 13° 89° (E) 22:39:39 437.425
50 SAT 30 Aug 22:39:36 22:42:47 24° 71° (ENE) 22:46:03 437.505
HO-68 30 Aug 22:44:07 22:48:18 15° 272° (W) 22:52:02 435.675
CUBEBUG 2 30 Aug 22:51:42 22:55:26 23° 267° (W) 22:59:09 437.445
VELOX 1 30 Aug 22:52:09 22:55:58 31° 70° (ENE) 22:59:53 145.980
CINEMA 3 30 Aug 22:56:27 22:57:15 10° 274° (W) 22:57:42 145.822/145.860
ZACube-1 30 Aug 22:56:43 23:00:49 33° 264° (W) 23:04:57 437.345
UWE-3 30 Aug 23:01:20 23:05:02 23° 267° (W) 23:08:42 435.000/436.395/437.385
FUNcube-1 30 Aug 23:02:52 23:06:51 29° 265° (W) 23:10:49 145.935
TIGRISAT 30 Aug 23:03:04 23:06:51 26° 94° (E) 23:10:39 435.000
ANTELSAT 30 Aug 23:19:15 23:23:34 40° 97° (E) 23:27:48 437.575/2403.000
DELFI C3 30 Aug 23:28:31 23:30:26 13° 270° (W) 23:32:08 145.870
BEESAT 3 30 Aug 23:32:13 23:34:27 15° 44° (NE) 23:36:48 437.485
RS-15 30 Aug 23:36:19 23:45:32 27° 28° (NNE) 23:55:21 29.354- 29.394
TISAT 1 30 Aug 23:40:57 23:41:22 10° 64° (ENE) 23:42:02 437.305
ESTCUBE 1 30 Aug 23:41:31 23:46:00 81° 76° (ENE) 23:50:31 437.505/2401.250
DX 1 30 Aug 23:42:26 23:46:33 42° 261° (W) 23:50:40 434.975-435.025
BEESAT 2 30 Aug 23:42:30 23:44:41 14° 43° (NE) 23:47:00 435.950
HUMSAT D 30 Aug 23:52:54 23:56:05 20° 268° (W) 23:59:12 437.325/437.525
Cosmos 2504 30 Aug 23:54:05 00:02:01 69° 93° (E) 00:10:30 435.465 / 435.565
POLYITAN 1 30 Aug 23:57:07 00:01:07 37° 97° (E) 00:05:07 437.675
UKube-1 30 Aug 23:57:14 00:01:07 32° 263° (W) 00:04:59 .
AISAT 30 Aug 23:59:34 00:03:47 43° 261° (W) 00:08:00 437.250
POPSAT HIP 1 31 Aug 00:00:10 00:04:13 39° 98° (E) 00:08:15 437.405
DUCHIFAT 1 31 Aug 00:01:43 00:05:45 39° 98° (E) 00:09:46 145.980
CUBEBUG 1 31 Aug 00:03:42 00:07:59 69° 259° (WSW) 00:12:19 437.445
SPROUT 31 Aug 00:04:15 00:08:05 34° 72° (ENE) 00:12:00 437.525
AUBIESAT-1 31 Aug 00:09:58 00:13:56 88° 291° (WNW) 00:17:34 437.475
UNISAT 6 31 Aug 00:10:07 00:14:37 54° 286° (WNW) 00:18:58 437.425
YUBILEINY 31 Aug 00:11:59 00:17:09 16° 301° (WNW) 00:21:46 435.215
50 SAT 31 Aug 00:14:03 00:17:15 23° 266° (W) 00:20:24 437.505
M-CUBED/EXP-1 PRIME 31 Aug 00:14:09 00:18:09 64° 290° (WNW) 00:21:47 437.505
BUGSAT 1 31 Aug 00:14:41 00:18:33 34° 97° (E) 00:22:27 437.445
QB50P2 31 Aug 00:16:39 00:20:57 65° 101° (E) 00:25:12 145.880/145.840
NANOSAT C BR1 31 Aug 00:18:37 00:22:54 65° 101° (E) 00:27:08 145.865
VELOX 1 31 Aug 00:29:05 00:32:34 22° 266° (W) 00:35:58 145.980
QB50P1 31 Aug 00:31:46 00:36:06 86° 284° (WNW) 00:40:23 145.935-145.965
TIGRISAT 31 Aug 00:39:39 00:43:34 28° 291° (WNW) 00:47:21 435.000
ANTELSAT 31 Aug 00:56:50 01:00:03 19° 293° (WNW) 01:03:05 437.575/2403.000
ITUPSAT 1 31 Aug 00:58:07 01:00:30 14° 64° (ENE) 01:03:06 437.325
BEESAT 3 31 Aug 01:08:49 01:12:46 57° 242° (WSW) 01:16:38 437.485
CUSAT 1 31 Aug 01:09:48 01:13:24 55° 284° (WNW) 01:18:14 437.405
TISAT 1 31 Aug 01:12:26 01:16:36 69° 259° (WSW) 01:20:49 437.305
BEESAT 2 31 Aug 01:19:08 01:23:09 60° 242° (WSW) 01:27:04 435.950
DANDE 31 Aug 01:30:03 01:33:15 52° 284° (WNW) 01:37:29 436.750
BEESAT 31 Aug 01:30:07 01:34:13 30° 70° (ENE) 01:38:24 436.000
POLYITAN 1 31 Aug 01:33:44 01:36:45 18° 292° (WNW) 01:39:39 437.675
Oscar 19 31 Aug 01:35:00 01:38:21 18° 91° (E) 01:41:53 437.125/150
POPSAT HIP 1 31 Aug 01:36:53 01:39:48 17° 293° (WNW) 01:42:34 437.405
DUCHIFAT 1 31 Aug 01:38:23 01:41:16 17° 293° (WNW) 01:44:00 145.980
SPROUT 31 Aug 01:41:08 01:44:16 19° 268° (W) 01:47:18 437.525
AIST 2 31 Aug 01:47:37 01:51:42 51° 55° (NE) 01:55:42 435.215
Cosmos 2504 31 Aug 01:48:35 01:55:07 25° 294° (WNW) 02:01:37 435.465 / 435.565
RS-15 31 Aug 01:48:41 02:00:34 74° 56° (NE) 02:12:52 29.354- 29.394
SO-50 31 Aug 01:49:28 01:54:13 76° 120° (ESE) 01:59:09 436.795
BUGSAT 1 31 Aug 01:50:41 01:53:48 20° 292° (WNW) 01:56:49 437.445
QB50P2 31 Aug 01:54:56 01:56:20 11° 295° (WNW) 01:57:30 145.880/145.840
SWISSCUBE 31 Aug 01:55:14 01:59:55 60° 74° (ENE) 02:04:38 437.505
NANOSAT C BR1 31 Aug 01:56:51 01:58:14 11° 295° (WNW) 01:59:22 145.865
PCSat 31 Aug 02:06:58 02:12:03 45° 112° (ESE) 02:17:13 145.827
Gurwin Techsat 1B 31 Aug 02:09:18 02:10:08 10° 87° (E) 02:11:22 435.225
ITAMSAT 1 31 Aug 02:31:55 02:34:38 15° 90° (E) 02:37:37 435.822/435.867
ITUPSAT 1 31 Aug 02:33:12 02:37:56 61° 259° (W) 02:42:40 437.325
STARS 31 Aug 02:43:53 02:46:33 16° 66° (ENE) 02:49:23 437.465
GONETS M04 31 Aug 02:57:27 03:05:35 49° 90° (E) 03:13:53
KKS-1 31 Aug 02:58:14 03:02:21 39° 72° (ENE) 03:06:32 437.445
JAS-2 31 Aug 03:04:22 03:09:23 22° 87° (E) 03:14:12 435.910
BEESAT 31 Aug 03:08:01 03:12:03 26° 265° (W) 03:16:02 436.000
Oscar 19 31 Aug 03:13:01 03:18:04 52° 288° (WNW) 03:23:05 437.125/150
AIST 2 31 Aug 03:27:44 03:29:51 13° 250° (WSW) 03:31:46 435.215
SO-50 31 Aug 03:32:15 03:35:24 16° 319° (NW) 03:38:27 436.795
SWISSCUBE 31 Aug 03:35:54 03:38:15 13° 271° (W) 03:40:19 437.505
Gurwin Techsat 1B 31 Aug 03:45:34 03:50:54 84° 285° (WNW) 03:56:13 435.225
PCSat 31 Aug 03:51:09 03:55:42 26° 310° (NW) 04:00:11 145.827
RS-15 31 Aug 04:02:15 04:12:19 31° 254° (WSW) 04:22:07 29.354- 29.394
HORYU 2 31 Aug 04:03:34 04:05:32 13° 90° (E) 04:07:44 437.375
ITAMSAT 1 31 Aug 04:09:31 04:14:39 62° 287° (WNW) 04:19:45 435.822/435.867
STARS 31 Aug 04:18:26 04:22:39 45° 261° (W) 04:26:55 437.465
VERMONT LUNAR 31 Aug 04:20:21 04:23:07 35° 156° (SSE) 04:25:53 437.305
AO-7 31 Aug 04:20:31 04:27:46 34° 96° (E) 04:35:08 29.400- 29.500
Cosmos 2499 31 Aug 04:28:59 04:36:55 50° 90° (E) 04:45:21 435.465 / 435.565
KKS-1 31 Aug 04:36:03 04:39:10 18° 268° (W) 04:42:09 437.445
MOZHAYETS 4 31 Aug 04:39:29 04:44:04 67° 75° (ENE) 04:48:39
JAS-2 31 Aug 04:48:11 04:55:08 59° 289° (WNW) 05:01:13 435.910
GONETS M04 31 Aug 04:54:57 05:02:45 34° 290° (WNW) 05:10:25
O/OREOS (USA 219) 31 Aug 05:19:13 05:23:42 48° 65° (ENE) 05:28:08 437.305
Gurwin Techsat 1B 31 Aug 05:28:53 05:30:10 11° 299° (WNW) 05:31:06 435.225
HORYU 2 31 Aug 05:38:12 05:42:34 53° 287° (WNW) 05:46:52 437.375
VERMONT LUNAR 31 Aug 05:56:29 05:59:28 70° 351° (N) 06:02:26 437.305
STRAND 1 31 Aug 06:01:22 06:03:30 13° 63° (ENE) 06:05:54 437.568
AO-7 31 Aug 06:12:53 06:20:52 52° 294° (WNW) 06:28:45 29.400- 29.500
MOZHAYETS 4 31 Aug 06:20:26 06:21:49 11° 272° (W) 06:22:53
PHONESAT 2.4 31 Aug 06:21:58 06:25:03 32° 154° (SSE) 06:28:09 2401.200-2431.200
Cosmos 2499 31 Aug 06:22:47 06:30:24 35° 290° (WNW) 06:38:13 435.465 / 435.565
CUTE-I 31 Aug 06:27:35 06:31:06 18° 91° (E) 06:34:50 437.470
CUBESAT XI-V 31 Aug 06:30:43 06:35:19 86° 75° (ENE) 06:39:56 437.345
JAS-2 31 Aug 06:38:13 06:38:41 10° 308° (NW) 06:38:41 435.910
O/OREOS (USA 219) 31 Aug 07:00:01 07:02:45 15° 260° (W) 07:05:16 437.305
PRISM 31 Aug 07:19:48 07:23:45 49° 74° (ENE) 07:27:43 437.425
Cubesat XI-IV 31 Aug 07:21:02 07:26:18 60° 101° (E) 07:31:34 437.490
BRITE-PL 31 Aug 07:30:08 07:33:13 15° 89° (E) 07:36:37 437.365/2234.400
AIST 1 31 Aug 07:32:52 07:33:40 11° 86° (E) 07:34:45
VERMONT LUNAR 31 Aug 07:33:03 07:36:02 69° 9° (N) 07:38:59 437.305
STRAND 1 31 Aug 07:37:03 07:42:09 76° 256° (WSW) 07:47:16 437.568
PHONESAT 2.4 31 Aug 07:59:23 08:02:47 79° 349° (NNW) 08:06:12 2401.200-2431.200
GOMX 1 31 Aug 08:02:57 08:06:38 19° 90° (E) 08:10:31 467.674
CUTE-I 31 Aug 08:06:23 08:11:33 52° 288° (WNW) 08:16:41 437.470
AO-7 31 Aug 08:10:02 08:11:57 11° 314° (NW) 08:13:20 29.400- 29.500
DOVE 4 31 Aug 08:20:57 08:24:06 16° 89° (E) 08:27:28 437.250
YUBILEINY 31 Aug 08:21:47 08:30:14 48° 75° (ENE) 08:38:41 435.215
HO-68 31 Aug 08:23:27 08:27:36 17° 89° (E) 08:32:11 435.675
ISS 31 Aug 08:23:54 08:25:36 14° 130° (SE) 08:27:23 145.825
COMPASS 1 31 Aug 08:53:34 08:54:16 10° 88° (E) 08:55:14 437.405
PRISM 31 Aug 08:57:51 08:59:31 12° 270° (W) 09:00:58 437.425
Cubesat XI-IV 31 Aug 09:02:30 09:05:58 17° 296° (WNW) 09:09:13 437.490
AAUSAT CUBESAT 2 31 Aug 09:03:47 09:05:13 12° 89° (E) 09:06:54 437.432
AIST 1 31 Aug 09:06:42 09:10:52 54° 280° (W) 09:15:02
BRITE-PL 31 Aug 09:06:43 09:12:12 69° 285° (WNW) 09:17:51 437.365/2234.400
Cosmos 2491 31 Aug 09:07:21 09:15:31 49° 90° (E) 09:23:48 435.465 / 435.565
VERMONT LUNAR 31 Aug 09:09:35 09:12:22 37° 204° (SSW) 09:15:09 437.305
CINEMA 3 31 Aug 09:11:44 09:15:29 22° 91° (E) 09:19:17 145.822/145.860
AUBIESAT-1 31 Aug 09:23:59 09:25:24 11° 59° (ENE) 09:27:04 437.475
CUTE 1.7 + AOD 2 31 Aug 09:26:28 09:30:32 45° 98° (E) 09:34:35 437.475
M-CUBED/EXP-1 PRIME 31 Aug 09:27:18 09:29:53 15° 60° (ENE) 09:32:39 437.505
UNISAT 6 31 Aug 09:33:58 09:35:33 12° 64° (ENE) 09:37:23 437.425
PHONESAT 2.4 31 Aug 09:37:25 09:40:48 68° 6° (N) 09:44:12 2401.200-2431.200
GOMX 1 31 Aug 09:39:45 09:45:05 55° 286° (WNW) 09:50:26 467.674
CANX-2 31 Aug 09:40:15 09:44:29 76° 101° (E) 09:48:41 2200.000
Cosmos 2504 31 Aug 09:43:38 09:49:32 21° 64° (ENE) 09:55:34 435.465 / 435.565
DOVE 4 31 Aug 09:57:02 10:02:17 60° 286° (WNW) 10:07:27 437.250
ISS 31 Aug 09:58:32 10:01:44 55° 325° (NW) 10:04:56 145.825
TIGRISAT 31 Aug 10:00:42 10:04:12 22° 68° (ENE) 10:07:49 435.000
SEEDS 31 Aug 10:03:04 10:07:16 83° 283° (WNW) 10:11:26 437.485
CUSAT 1 31 Aug 10:03:51 10:08:56 19° 64° (ENE) 10:14:39 437.405
Oscar 11 31 Aug 10:05:07 10:08:47 27° 95° (E) 10:12:29 145.826/435.025
HO-68 31 Aug 10:09:00 10:16:15 81° 287° (WNW) 10:23:26 435.675
ANTELSAT 31 Aug 10:16:44 10:20:53 33° 71° (ENE) 10:25:07 437.575/2403.000
YUBILEINY 31 Aug 10:19:03 10:26:52 35° 274° (W) 10:34:26 435.215
SO-50 31 Aug 10:22:20 10:27:08 49° 54° (NE) 10:31:49 436.795
DANDE 31 Aug 10:26:15 10:31:20 20° 66° (ENE) 10:37:13 436.750
COMPASS 1 31 Aug 10:26:16 10:30:22 56° 285° (WNW) 10:34:24 437.405
AAUSAT CUBESAT 2 31 Aug 10:37:10 10:41:10 49° 286° (WNW) 10:45:09 437.432
CUBEBUG 2 31 Aug 10:43:01 10:47:44 86° 102° (ESE) 10:52:17 437.445
ZACube-1 31 Aug 10:46:14 10:50:39 53° 99° (E) 10:54:57 437.345
CINEMA 3 31 Aug 10:48:09 10:52:51 40° 288° (WNW) 10:57:22 145.822/145.860
POLYITAN 1 31 Aug 10:49:10 10:52:36 25° 70° (ENE) 10:56:08 437.675
UWE-3 31 Aug 10:51:28 10:56:06 82° 102° (ESE) 11:00:34 435.000/436.395/437.385
FUNcube-1 31 Aug 10:51:56 10:56:23 59° 100° (E) 11:00:41 145.935
POPSAT HIP 1 31 Aug 10:51:59 10:55:27 26° 70° (ENE) 10:59:02 437.405
DUCHIFAT 1 31 Aug 10:53:06 10:56:32 25° 70° (ENE) 11:00:04 145.980
AUBIESAT-1 31 Aug 10:54:46 10:59:31 86° 251° (WSW) 11:04:14 437.475
PCSat 31 Aug 10:56:10 11:00:50 29° 51° (NE) 11:05:33 145.827
M-CUBED/EXP-1 PRIME 31 Aug 10:59:24 11:04:11 66° 254° (WSW) 11:08:56 437.505
CUTE 1.7 + AOD 2 31 Aug 11:03:41 11:06:06 15° 293° (WNW) 11:08:20 437.475
BUGSAT 1 31 Aug 11:04:11 11:07:07 20° 68° (ENE) 11:10:12 437.445
Cosmos 2491 31 Aug 11:04:51 11:12:41 35° 289° (WNW) 11:20:21 435.465 / 435.565
DELFI C3 31 Aug 11:05:58 11:09:59 87° 282° (WNW) 11:13:57 145.870
UNISAT 6 31 Aug 11:07:05 11:11:45 74° 259° (W) 11:16:29 437.425
QB50P2 31 Aug 11:08:13 11:12:11 40° 73° (ENE) 11:16:14 145.880/145.840
NANOSAT C BR1 31 Aug 11:09:47 11:13:44 40° 72° (ENE) 11:17:44 145.865
PHONESAT 2.4 31 Aug 11:15:22 11:18:40 47° 202° (SSW) 11:21:56 2401.200-2431.200
